Powrót do katalogu

FENGYUN 1C DEB

AktywnySSO
NORAD 31082·DEBRIS·🇨🇳 China

Wystrzelony May 10, 1999 z Taiyuan Satellite Launch Center

Loading…

Następne Przeloty (najbliższe 24 godziny)

TLE

Starzejące sięSource: Space-Track

Epoka: Sep 4, 2026, 06:13 UTC

1 31082U 99025BGC 26247.25935584  .00000617  00000-0  33985-3 0  9996
2 31082  98.6758 251.7211 0068781 161.6520 198.7158 14.13920565    15

Śledź FENGYUN 1C DEB w czasie rzeczywistym z AllMySat

Download on the App Store